Tracking 35331 objects as of 15-Sep-2026
HD Live streaming from Space Station
objects crossing your sky now

COSMOS 1761

Track COSMOS 1761 now!
COSMOS 1761 is classified as:


NORAD ID: 16849
Int'l Code: 1986-050A
Launch date: July 5, 1986
Source: Commonwealth of Independent States (former USSR) (CIS)
Launch site: PLESETSK MISSILE AND SPACE COMPLEX (PKMTR)
Your satellite tracking list
Your tracking list is empty




NASA's NSSDC Master Catalog

Two Line Element Set (TLE):
1 16849U 86050A   26256.64743414 -.00000314  00000-0  00000-0 0  9990
2 16849  70.6980  40.0977 5637216   1.0865 178.2128  2.00325002294364
Source of the keplerian elements: AFSPC